Flag for Reunion (French) Weather past 2 weeks in Saint-Pierre, Reunion (French)

Now
82 °F

Mostly cloudy.


Feels Like: 88 °F
Forecast: 75 / 81 °F
Wind: 22 mph from Southeast

Location: Saint Airport-Pierre

Current Time: Apr 18, 2015 at 12:58:34 PM

Latest Report: Apr 18, 2015 at 12:30 PM


Visibility: N/A

Pressure: 29.98 "Hg

Humidity: 74%

Dew point: 73 °F

Location of Saint-PierreLocation

Historic Weather in Saint-Pierre — Graph

°F

Saint-Pierre temperature yesterday

Maximum temperature yesterday: 86 °F (at 1:30 PM)
Minimum temperature yesterday: 72 °F (at 4:30 AM)
Average temperature yesterday: 78 °F

Past Weeks' High & Low Weather Summary

 TemperatureHumidityPressure
High90 °F (Apr 6, 12:00 PM)94% (Apr 6, 7:30 PM)30.09 "Hg (Apr 6, 7:30 PM)
Low70 °F (Apr 12, 4:00 AM)48% (Apr 13, 9:00 AM)29.77 "Hg (Apr 3, 3:00 PM)
Average79 °F71%29.90 "Hg
* Reported Apr 3 11:00 AM — Apr 18 11:30 AM, Saint-Pierre, Weather by CustomWeather, © 2015

Note: Actual official high and low records may vary slightly from our data, if they occured in-between our weather recording intervals... More about our weather records

Advertising

Saint-Pierre weather history for previous 24 hours

 ConditionsComfort  
Time TempWeatherWind HumidityBarometerVisibility
11:30 AM
Sat, Apr 18
82 °FMostly cloudy.16 mph74%29.98 "HgN/A
11:00 AM82 °FBroken clouds.16 mph74%30.01 "HgN/A
10:30 AM82 °FBroken clouds.15 mph74%30.01 "HgN/A
10:00 AM81 °FMostly cloudy.14 mph79%30.01 "HgN/A
9:30 AM79 °FMostly cloudy.10 mph84%30.04 "HgN/A
9:00 AM75 °FDrizzle. Partly sunny.16 mph89%30.04 "Hg6 mi
8:30 AM79 °FOvercast.15 mph79%30.01 "HgN/A
8:00 AM79 °FBroken clouds.13 mph79%30.01 "HgN/A
7:30 AM75 °FMild.3 mph83%30.01 "HgN/A
7:00 AM73 °FPartly sunny.9 mph83%30.01 "HgN/A
6:30 AM73 °FMostly cloudy.7 mph89%30.01 "HgN/A
6:00 AM73 °FCloudy.7 mph94%30.01 "HgN/A
5:30 AM73 °FLight rain. Partly sunny.10 mph94%30.01 "HgN/A
5:00 AM73 °FPassing clouds.7 mph89%30.01 "HgN/A
4:30 AM75 °FMostly cloudy.7 mph83%30.01 "HgN/A
4:00 AM75 °FMostly cloudy.8 mph83%30.01 "HgN/A
3:30 AM73 °FPartly cloudy.8 mph89%30.01 "HgN/A
3:00 AM73 °FMostly cloudy.7 mph89%30.01 "HgN/A
2:30 AM73 °FLight rain. Mostly cloudy.8 mph89%30.04 "Hg4 mi
2:00 AM73 °FRain. Fog.14 mph94%30.04 "Hg2 mi
1:30 AM75 °FPartly cloudy.5 mph74%30.04 "HgN/A
1:00 AM75 °FPassing clouds.5 mph78%30.07 "HgN/A
12:30 AM75 °FPassing clouds.7 mph74%30.07 "HgN/A
12:00 AM73 °FPassing clouds.8 mph78%30.07 "HgN/A
11:30 PM
Fri, Apr 17
73 °FPartly cloudy.8 mph83%30.07 "HgN/A
11:00 PM73 °FMostly cloudy.10 mph89%30.07 "HgN/A
10:30 PM75 °FPartly cloudy.9 mph83%30.07 "HgN/A
10:00 PM75 °FRain. Partly cloudy.14 mph83%30.09 "Hg5 mi
9:30 PM77 °FPassing clouds.9 mph74%30.07 "HgN/A
9:00 PM77 °FPassing clouds.8 mph74%30.07 "HgN/A
8:30 PM79 °FPassing clouds.8 mph70%30.07 "HgN/A
8:00 PM77 °FPassing clouds.8 mph74%30.07 "HgN/A
7:30 PM79 °FPassing clouds.8 mph74%30.07 "HgN/A
7:00 PM79 °FPassing clouds.10 mph74%30.04 "HgN/A
6:30 PM81 °FPassing clouds.14 mph70%30.04 "HgN/A
6:00 PM81 °FPassing clouds.17 mph70%30.04 "HgN/A
5:30 PM81 °FPassing clouds.20 mph70%30.01 "HgN/A
5:00 PM82 °FWarm.20 mph66%30.01 "HgN/A
4:30 PM82 °FPassing clouds.18 mph66%30.01 "HgN/A
4:00 PM82 °FScattered clouds.20 mph66%30.01 "HgN/A
3:30 PM82 °FBroken clouds.20 mph66%30.01 "HgN/A
3:00 PM84 °FPartly sunny.20 mph62%30.01 "HgN/A
2:30 PM82 °FScattered clouds.21 mph70%30.01 "HgN/A
2:00 PM84 °FWarm.22 mph62%30.01 "HgN/A
1:30 PM86 °FWarm.21 mph62%30.01 "HgN/A
1:00 PM84 °FWarm.20 mph66%30.01 "HgN/A
12:30 PM84 °FWarm.21 mph66%30.04 "HgN/A
12:00 PM84 °FWarm.20 mph62%30.07 "HgN/A
Weather by CustomWeather, © 2015

See weather overviewHow to use our weather pages